Airfield :
LOGIN :

Register | Disclaimer

   EN    FR    IT 

 










Legend :    VFR   Marginal VFR   IFR   Intensive IFR   Very Intensive IFR
Visi :
Ceiling :
>= 8 km
>= 3000ft
5 to 8 km
1000 to 3000 ft
1500m to 5 km
500 to 1000 ft
800 to 1500m
200 to 500 ft
< 800m
< 200 ft
Symbols :   Thunderstorms  Fog  Heavy snow  Heavy precipitations  Wind > 20 kt
SIGMETs :     Misc.  Thunderstorms  Icing  Turbulence  Mountain Waves  Volcanic Ashes







- Airport Elevation : 13 ft
- IATA code : OST


EBOS - Oostend bruges Int.

CURRENT METAR :
  • 221220Z 35014KT 9999 FEW025 15/08 Q1030 NOSIG

EXPIRED METARs :
  • 221150Z 35014KT 9999 FEW025 15/07 Q1030 NOSIG
  • 221120Z 35014KT 9999 FEW028 15/08 Q1030 NOSIG
  • 221050Z 35015KT 9999 FEW028 16/08 Q1030 NOSIG
  • 221020Z 35015KT 9999 FEW028 15/07 Q1030 NOSIG
  • 220950Z 34015KT 9999 FEW028 15/07 Q1030 NOSIG

TAF TAF EBOS
Valid from the 22 at 12:00 until the 23 at 18:00 UTC


221110Z 2212/2318 35015KT 9999 SCT030
BECMG 2300/2302 29005KT
No reported NOTAMs for that airfield.



MET'MAP, your aeronautical weather chart ! - Copyright ORBIFLY December 2007 - Disclaimer

ORBIFLY MET'MAP TEAM :

Programming & Development : Alexandra Zaïnal
Concept & Development : Baudouin d'Aumeries
Co-Development & Prog : Marc-Olivier Méhu
Technical & hardware support : Manuel Goepfert

Contact : metmap@orbifly.com




SOURCES & CREDITS :

   NOAA